When you browse on this site, cookies collect data to enhance your experience and personalize the content and advertising you see.
Visit our Privacy Policy to learn more. By continuing to use the site, you agree to this use of cookies and data.
  • In United Kingdom
  • List of Countries
  • For 7 days
  • Water Temperature
  • Satellite Maps
  • Weather Map
  • Weather Widgets
  • user-avatar
    Login

    Hourly Weather Bansko

    Today, 24 April, Wednesday

    Time Temperature Precipitation Wind Pressure Humidity
    00:00 +8°C° 0 mm 2 mps 724 mmHg 81%
    01:00 +8°C° 0 mm 2 mps 724 mmHg 78%
    02:00 +8°C° 0 mm 2 mps 724 mmHg 75%
    03:00 +8°C° 0 mm 2 mps 724 mmHg 74%
    04:00 +8°C° 0 mm 2 mps 724 mmHg 73%
    05:00 +8°C° 0 mm 2 mps 724 mmHg 72%
    06:00 +10°C° 0 mm 2 mps 725 mmHg 67%
    07:00 +13°C° 0 mm 2 mps 725 mmHg 63%
    08:00 +15°C° 0 mm 2 mps 725 mmHg 59%
    09:00 +17°C° 0 mm 2 mps 725 mmHg 55%
    10:00 +19°C° 0 mm 3 mps 725 mmHg 50%
    11:00 +21°C° 0 mm 3 mps 725 mmHg 45%
    12:00 +22°C° 0 mm 3 mps 725 mmHg 44%
    13:00 +24°C° 0 mm 3 mps 725 mmHg 43%
    14:00 +23°C° 0 mm 4 mps 725 mmHg 41%
    15:00 +24°C° 0 mm 3 mps 725 mmHg 44%
    16:00 +22°C° 0 mm 3 mps 724 mmHg 47%
    17:00 +22°C° 0 mm 3 mps 724 mmHg 50%
    18:00 +19°C° 0 mm 3 mps 724 mmHg 60%
    19:00 +17°C° 0 mm 2 mps 724 mmHg 69%
    20:00 +15°C° 0 mm 2 mps 723 mmHg 78%
    21:00 +14°C° 0 mm 2 mps 724 mmHg 82%
    22:00 +13°C° 0 mm 2 mps 724 mmHg 85%
    23:00 +13°C° 0 mm 2 mps 724 mmHg 88%

    Tomorrow, 25 April, Thursday

    Time Temperature Precipitation Wind Pressure Humidity
    00:00 +12°C° 0 mm 1 mps 724 mmHg 87%
    01:00 +12°C° 0 mm 1 mps 724 mmHg 86%
    02:00 +12°C° 0 mm 1 mps 724 mmHg 85%
    03:00 +12°C° 0 mm 1 mps 724 mmHg 83%
    04:00 +12°C° 0 mm 1 mps 724 mmHg 80%
    05:00 +12°C° 0 mm 1 mps 724 mmHg 78%
    06:00 +14°C° 0 mm 1 mps 725 mmHg 71%
    07:00 +16°C° 0 mm 1 mps 725 mmHg 65%
    08:00 +19°C° 0 mm 1 mps 725 mmHg 58%
    09:00 +21°C° 0 mm 1 mps 726 mmHg 53%
    10:00 +23°C° 0 mm 1 mps 726 mmHg 48%
    11:00 +25°C° 0 mm 1 mps 726 mmHg 43%
    12:00 +25°C° 0 mm 1 mps 725 mmHg 41%
    13:00 +26°C° 0 mm 2 mps 725 mmHg 39%
    14:00 +26°C° 0 mm 2 mps 725 mmHg 38%
    15:00 +25°C° 0 mm 2 mps 724 mmHg 41%
    16:00 +25°C° 0 mm 2 mps 724 mmHg 44%
    17:00 +24°C° 0 mm 2 mps 724 mmHg 48%
    18:00 +21°C° 0 mm 2 mps 724 mmHg 57%
    19:00 +19°C° 0 mm 2 mps 723 mmHg 66%
    20:00 +18°C° 0 mm 1 mps 723 mmHg 75%
    21:00 +18°C° 0 mm 1 mps 724 mmHg 78%
    22:00 +16°C° 0 mm 1 mps 724 mmHg 80%
    23:00 +16°C° 0 mm 1 mps 724 mmHg 83%

    Day after tomorrow, 26 April, Friday

    Time Temperature Precipitation Wind Pressure Humidity
    00:00 +15°C° 0 mm 1 mps 724 mmHg 84%
    01:00 +15°C° 0 mm 1 mps 724 mmHg 85%
    02:00 +13°C° 0 mm 0 mps 723 mmHg 87%
    03:00 +14°C° 0 mm 1 mps 723 mmHg 86%
    04:00 +13°C° 0 mm 1 mps 723 mmHg 85%
    05:00 +13°C° 0 mm 1 mps 723 mmHg 84%
    06:00 +15°C° 0 mm 1 mps 723 mmHg 75%
    07:00 +16°C° 0 mm 0 mps 724 mmHg 67%
    08:00 +19°C° 0 mm 0 mps 724 mmHg 59%
    09:00 +20°C° 0 mm 0 mps 724 mmHg 52%
    10:00 +24°C° 0 mm 1 mps 724 mmHg 45%
    11:00 +26°C° 0 mm 1 mps 724 mmHg 39%
    12:00 +27°C° 0 mm 1 mps 724 mmHg 37%
    13:00 +27°C° 0 mm 1 mps 723 mmHg 36%
    14:00 +27°C° 0 mm 1 mps 723 mmHg 34%
    15:00 +27°C° 0 mm 1 mps 723 mmHg 35%
    16:00 +27°C° 0 mm 1 mps 722 mmHg 36%
    17:00 +26°C° 0 mm 1 mps 722 mmHg 37%
    18:00 +24°C° 0 mm 1 mps 722 mmHg 46%
    19:00 +22°C° 0 mm 1 mps 722 mmHg 55%
    20:00 +18°C° 0 mm 2 mps 722 mmHg 64%
    21:00 +18°C° 0 mm 2 mps 722 mmHg 71%
    22:00 +17°C° 0 mm 2 mps 722 mmHg 77%
    23:00 +16°C° 0 mm 2 mps 722 mmHg 84%

    27 April, Saturday

    Time Temperature Precipitation Wind Pressure Humidity
    00:00 +16°C° 0 mm 2 mps 722 mmHg 87%
    01:00 +16°C° 0 mm 2 mps 721 mmHg 89%
    02:00 +15°C° 0 mm 2 mps 721 mmHg 92%
    03:00 +15°C° 0 mm 2 mps 721 mmHg 92%
    04:00 +15°C° 0 mm 2 mps 720 mmHg 93%
    05:00 +15°C° 0 mm 2 mps 720 mmHg 93%
    06:00 +16°C° 0 mm 2 mps 720 mmHg 87%
    07:00 +17°C° 0 mm 2 mps 720 mmHg 80%
    08:00 +19°C° 0 mm 2 mps 720 mmHg 73%
    09:00 +20°C° 0 mm 2 mps 720 mmHg 66%
    10:00 +22°C° 0 mm 3 mps 720 mmHg 59%
    11:00 +24°C° 0 mm 3 mps 720 mmHg 52%
    12:00 +24°C° 0.2 mm 3 mps 719 mmHg 51%
    13:00 +25°C° 0.2 mm 3 mps 719 mmHg 50%
    14:00 +25°C° 0.2 mm 3 mps 718 mmHg 48%
    15:00 +24°C° 0.5 mm 3 mps 718 mmHg 52%
    16:00 +22°C° 0.5 mm 3 mps 717 mmHg 57%
    17:00 +21°C° 0.5 mm 3 mps 717 mmHg 61%
    18:00 +20°C° 0.5 mm 2 mps 717 mmHg 66%
    19:00 +18°C° 0.5 mm 2 mps 717 mmHg 71%
    20:00 +18°C° 0.5 mm 1 mps 717 mmHg 76%
    21:00 +16°C° 0.3 mm 1 mps 717 mmHg 80%
    22:00 +15°C° 0.3 mm 1 mps 717 mmHg 84%
    23:00 +14°C° 0.3 mm 1 mps 717 mmHg 87%

    28 April, Sunday

    Time Temperature Precipitation Wind Pressure Humidity
    00:00 +13°C° 0 mm 1 mps 717 mmHg 88%
    01:00 +13°C° 0 mm 1 mps 717 mmHg 88%
    02:00 +12°C° 0 mm 1 mps 717 mmHg 89%
    03:00 +12°C° 0 mm 1 mps 717 mmHg 86%
    04:00 +11°C° 0 mm 1 mps 717 mmHg 83%
    05:00 +10°C° 0 mm 1 mps 717 mmHg 80%
    06:00 +12°C° 0 mm 1 mps 717 mmHg 73%
    07:00 +14°C° 0 mm 1 mps 718 mmHg 65%
    08:00 +15°C° 0 mm 1 mps 718 mmHg 58%
    09:00 +18°C° 0 mm 1 mps 718 mmHg 51%
    10:00 +20°C° 0 mm 1 mps 718 mmHg 45%
    11:00 +21°C° 0 mm 1 mps 718 mmHg 38%
    12:00 +22°C° 0 mm 1 mps 718 mmHg 35%
    13:00 +23°C° 0 mm 1 mps 718 mmHg 33%
    14:00 +24°C° 0 mm 1 mps 717 mmHg 30%
    15:00 +24°C° 0 mm 1 mps 717 mmHg 31%
    16:00 +23°C° 0 mm 2 mps 717 mmHg 32%
    17:00 +23°C° 0 mm 2 mps 717 mmHg 33%
    18:00 +19°C° 0 mm 2 mps 717 mmHg 40%
    19:00 +18°C° 0 mm 1 mps 717 mmHg 46%
    20:00 +15°C° 0 mm 1 mps 717 mmHg 53%
    21:00 +14°C° 0 mm 1 mps 717 mmHg 54%
    22:00 +13°C° 0 mm 1 mps 717 mmHg 55%
    23:00 +13°C° 0 mm 2 mps 717 mmHg 56%

    29 April, Monday

    Time Temperature Precipitation Wind Pressure Humidity
    00:00 +12°C° 0 mm 2 mps 717 mmHg 58%
    01:00 +12°C° 0 mm 2 mps 717 mmHg 61%
    02:00 +12°C° 0 mm 1 mps 717 mmHg 63%
    03:00 +11°C° 0 mm 1 mps 717 mmHg 65%
    04:00 +11°C° 0 mm 1 mps 717 mmHg 68%
    05:00 +11°C° 0 mm 1 mps 717 mmHg 70%
    06:00 +13°C° 0 mm 2 mps 717 mmHg 65%
    07:00 +15°C° 0 mm 2 mps 717 mmHg 60%
    08:00 +17°C° 0 mm 2 mps 717 mmHg 55%
    09:00 +18°C° 0 mm 3 mps 717 mmHg 52%
    10:00 +19°C° 0 mm 3 mps 717 mmHg 50%
    11:00 +20°C° 0 mm 4 mps 717 mmHg 47%
    12:00 +21°C° 0 mm 4 mps 716 mmHg 45%
    13:00 +21°C° 0 mm 4 mps 716 mmHg 43%
    14:00 +22°C° 0 mm 4 mps 716 mmHg 40%
    15:00 +21°C° 0.1 mm 4 mps 715 mmHg 44%
    16:00 +20°C° 0.1 mm 3 mps 715 mmHg 47%
    17:00 +19°C° 0.1 mm 3 mps 715 mmHg 50%
    18:00 +18°C° 0.4 mm 3 mps 715 mmHg 60%
    19:00 +16°C° 0.4 mm 2 mps 715 mmHg 69%
    20:00 +14°C° 0.4 mm 2 mps 715 mmHg 79%
    21:00 +13°C° 0.4 mm 1 mps 715 mmHg 81%
    22:00 +13°C° 0.4 mm 1 mps 715 mmHg 83%
    23:00 +12°C° 0.4 mm 1 mps 716 mmHg 85%
    Show more